RH
73 75 74 74 75 73 73 74 74 73 73 71 70 69 66 68 75 77 80 69 64 58 76 65 71 76 69 78 84 80 96 90 76 67 60 49 54 50 44 57 53 69 69 65 57
77 76 76 76 75 76 75 75 74 74 72 71 68 66 65 73 78 73 52 69 77 80 64 65 67 53 76 83 83 94 94 84 58 53 55 49 51 56 63 64 74 92 94 86 88
77 77 76 76 76 77 77 76 76 74 72 67 67 67 65 76 75 70 44 48 66 61 52 43 56 63 82 72 85 82 92 60 60 55 47 51 48 52 58 68 55 71 88 94 98
78 78 77 78 78 79 79 78 77 74 69 68 67 64 72 71 47 24 40 44 57 51 46 39 49 56 94 99 78 92 75 70 59 54 57 53 47 53 61 55 55 52 59 96 98
78 77 78 79 81 82 81 80 77 72 67 65 61 61 68 79 82 29 28 34 36 43 45 44 53 57 70 68 89 97 89 75 60 62 62 78 80 54 55 49 56 59 72 90 90
78 78 79 81 83 83 82 76 72 71 64 62 58 61 69 87 26 27 27 28 31 46 48 54 60 51 62 63 67 74 73 90 82 67 70 80 84 89 54 56 71 74 82 80 78
80 80 81 83 85 82 76 70 70 64 60 59 56 61 72 76 27 28 33 32 27 35 54 50 48 64 67 76 59 63 83 72 91 79 74 82 95 91 73 56 73 82 82 77 69
81 81 82 85 86 81 71 61 55 56 53 54 52 56 80 28 34 40 26 26 23 22 46 38 50 64 70 67 72 67 78 96 56 67 68 83 94 69 67 54 61 77 84 81 73
82 83 85 87 87 81 66 42 38 30 40 26 38 46 50 25 28 27 27 28 25 24 29 40 70 70 78 95 92 81 89 94 74 51 68 80 95 63 63 73 60 70 80 84 83
84 86 88 91 88 83 53 34 32 28 23 30 30 33 26 41 31 31 26 26 38 41 48 60 63 76 96 95 91 78 90 75 73 51 66 75 92 67 70 77 73 68 82 89 84
86 88 90 92 87 79 39 40 66 53 54 52 44 51 47 33 31 32 27 31 36 47 71 54 76 90 76 82 70 61 76 57 56 46 59 86 77 64 66 75 86 80 80 91 88
89 92 92 66 84 36 40 58 53 56 79 62 62 59 51 34 41 36 27 44 48 63 59 81 84 58 56 65 86 93 90 81 62 60 52 90 77 64 68 82 77 82 80 84 86
90 93 77 38 40 34 48 55 58 61 82 60 51 51 35 35 44 42 38 46 60 61 61 88 58 44 59 75 92 85 91 76 65 75 47 96 93 73 65 69 85 86 78 76 77
85 83 52 38 35 46 44 53 62 64 64 42 40 32 37 39 47 29 34 48 56 64 62 67 59 72 75 73 81 94 72 68 56 79 86 79 95 81 69 82 83 76 86 74 71
64 48 33 40 47 54 47 60 67 54 42 31 45 29 35 47 43 39 32 47 64 65 82 64 62 61 64 57 68 85 61 67 64 69 96 76 97 87 70 76 81 77 78 72 60
55 41 35 34 39 46 57 68 69 36 42 51 45 50 50 45 44 45 46 47 52 68 60 67 54 87 78 74 78 74 78 75 86 77 95 78 76 86 90 76 62 64 66 66 54
73 33 30 32 52 39 64 55 40 70 46 48 59 52 55 51 51 56 64 81 91 92 72 58 57 87 83 90 83 83 84 95 96 96 90 64 92 95 88 94 62 62 70 63 64
65 36 30 32 34 35 40 44 77 56 75 52 57 57 65 56 58 69 73 92 80 93 92 97 83 82 73 94 96 96 90 89 94 83 70 70 82 95 95 92 82 85 81 72 67
58 38 38 29 31 32 54 88 82 70 64 69 65 80 76 52 70 82 81 96 78 75 96 96 69 44 86 95 96 94 95 78 92 95 78 81 95 82 90 90 88 80 81 82 65
75 60 44 30 31 38 73 70 68 56 64 64 90 80 99 77 88 91 88 78 78 64 79 94 94 47 56 66 90 98 85 94 96 96 95 93 89 92 91 90 88 91 88 91 74
73 53 41 30 34 68 93 89 71 58 58 69 84 88 91 96 84 96 89 72 60 66 69 92 95 64 64 90 95 87 86 94 96 97 95 94 91 90 91 89 89 92 92 90 82
87 54 44 35 62 76 94 85 60 64 60 63 65 74 90 90 96 96 93 83 56 70 94 93 96 92 95 95 75 78 90 93 94 94 94 76 93 88 89 89 89 88 80 69 60
98 94 46 41 91 93 84 76 69 72 72 75 76 69 73 95 95 82 87 63 67 76 88 92 87 93 72 78 60 92 88 83 92 94 95 92 89 85 87 90 87 73 66 62 59
90 88 75 74 74 93 96 84 80 64 75 68 75 70 87 91 81 91 86 70 63 73 59 75 86 82 88 93 96 92 86 84 87 91 90 90 88 88 84 87 86 76 63 62 61
95 92 80 96 82 99 95 85 86 90 76 73 77 76 90 99 91 92 70 74 68 72 84 89 93 84 86 87 68 82 90 90 90 94 92 94 87 90 91 91 91 86 69 67 68
92 96 96 91 94 89 81 89 89 91 94 84 94 82 85 94 85 87 84 79 89 84 95 82 86 94 92 87 66 78 84 75 81 89 90 92 93 94 90 90 90 88 76 74 73
98 98 100 89 87 88 81 89 88 88 74 72 83 86 79 67 68 69 71 77 82 92 100 88 94 96 96 93 92 73 99 95 95 94 95 93 94 92 90 87 90 88 78 74 72
Wind_Speed
26 26 27 27 27 27 27 25 23 22 22 22 22 20 19 18 17 17 12 23 23 18 12 15 23 22 16 9 12 12 16 22 34 35 21 9 17 18 20 12 9 8 7 5 15
26 28 29 29 29 29 27 25 24 24 24 23 21 19 18 16 13 13 18 13 6 3 3 11 14 15 7 8 7 15 15 28 36 30 18 18 15 15 9 11 9 4 1 7 16
28 29 30 30 30 29 26 25 25 25 22 20 16 15 13 8 3 6 9 10 5 8 10 2 1 11 9 13 8 14 27 33 28 17 23 17 27 13 16 17 17 20 13 12 9
29 30 31 32 32 28 26 26 25 22 20 18 15 11 5 2 3 4 10 8 3 6 6 2 1 1 7 8 12 18 23 27 22 30 16 29 20 22 20 17 15 25 23 16 14
30 32 33 34 31 29 28 27 24 21 19 16 14 6 2 1 7 6 10 11 13 8 7 3 5 5 9 8 11 16 19 19 27 19 23 12 14 25 22 18 12 16 17 17 15
32 33 35 34 30 30 29 26 24 22 20 14 8 4 4 2 5 6 10 16 19 12 7 8 7 8 9 13 12 12 21 23 17 19 19 19 20 8 17 17 12 17 19 19 19
33 34 36 33 31 30 28 27 26 24 17 11 7 5 3 10 7 8 14 21 27 25 6 16 17 6 3 9 15 15 20 19 22 15 19 15 13 16 18 15 15 17 17 17 18
35 36 36 32 29 27 27 29 27 20 13 7 5 7 5 15 15 16 24 28 27 17 22 26 18 11 10 7 9 10 11 16 20 18 12 12 17 19 26 19 17 17 16 16 18
36 37 36 31 27 26 25 33 16 12 12 6 4 4 7 4 12 26 25 11 20 26 15 13 7 8 7 11 10 8 12 16 17 15 8 16 8 18 5 14 20 20 15 15 14
37 38 36 30 26 24 23 15 16 6 14 5 5 2 3 7 20 29 19 24 8 6 3 5 5 6 9 11 10 12 11 12 17 18 17 15 20 13 11 9 12 17 14 14 16
37 38 35 28 24 17 22 6 6 6 9 2 3 4 8 18 26 8 16 8 4 1 4 7 4 10 19 15 15 14 17 20 12 15 18 19 18 18 14 10 9 14 14 14 14
38 38 31 26 24 12 10 4 1 5 6 3 6 6 10 15 11 10 23 6 5 12 5 4 15 20 15 14 14 14 20 18 11 12 14 17 23 15 19 12 9 10 14 15 14
42 37 26 27 14 15 5 6 8 3 1 6 4 4 7 13 8 8 11 6 7 14 11 10 10 15 12 13 14 21 22 20 10 8 18 7 17 12 15 16 13 6 8 11 15
46 36 24 26 4 17 6 19 5 5 2 6 6 2 6 17 5 21 11 3 8 8 9 9 5 6 9 16 14 17 22 18 14 11 14 15 4 16 17 16 19 19 10 11 16
48 25 24 23 12 7 13 14 4 2 4 15 6 4 16 5 11 4 18 4 9 17 4 8 11 14 11 12 9 10 15 17 12 15 3 15 9 2 17 19 17 20 23 18 9
48 19 24 24 19 16 18 8 3 4 4 8 6 18 20 4 7 6 6 4 13 9 15 16 11 7 6 15 17 9 8 9 4 6 7 9 16 4 3 15 20 21 23 18 10
46 14 27 25 13 22 3 2 5 5 9 10 12 19 16 14 13 7 9 10 10 13 20 11 3 3 3 15 3 17 11 5 7 7 6 15 11 3 12 17 7 8 5 12 13
41 8 29 35 27 16 2 5 9 4 5 12 11 17 5 13 13 11 8 6 3 13 13 6 7 7 9 4 4 5 6 3 5 7 10 12 10 4 10 14 17 18 16 15 17
30 9 29 41 27 11 5 6 3 3 7 10 13 4 5 7 8 8 6 3 8 15 10 6 6 5 14 6 2 7 6 3 3 1 7 9 6 11 13 18 19 18 17 17 16
16 7 20 33 20 14 5 4 2 2 6 3 3 4 5 11 10 7 5 4 11 13 16 4 7 5 12 10 6 5 3 2 3 5 6 7 8 4 13 15 16 17 17 14 16
8 3 20 23 10 5 4 2 4 6 6 3 3 5 6 11 11 4 6 9 13 13 12 5 3 9 7 10 11 8 5 5 5 2 2 5 4 6 10 12 13 13 13 13 14
5 3 16 16 6 3 3 4 7 5 4 3 3 3 3 14 5 3 5 4 15 16 14 1 4 6 4 9 12 18 8 5 3 5 3 4 4 9 9 11 11 10 11 13 14
2 3 7 10 4 3 4 4 3 4 5 3 3 2 3 5 6 4 5 8 8 11 13 8 5 6 6 1 8 7 18 13 7 3 5 2 4 9 11 10 12 12 14 14 15
3 4 4 4 2 3 4 3 6 6 4 3 4 3 8 5 5 6 6 7 18 6 20 5 6 3 3 2 4 8 20 22 3 4 3 6 6 13 14 13 13 15 13 11 12
3 2 1 5 3 2 1 3 7 6 3 3 3 3 9 4 5 3 6 14 9 6 7 4 2 4 9 10 9 15 15 19 20 13 5 6 7 13 13 13 11 10 12 14 14
1 2 2 4 4 5 2 3 5 4 3 5 1 15 4 4 6 17 15 3 5 8 5 6 2 4 7 7 6 8 17 14 14 15 11 7 6 9 10 10 6 11 15 15 15
4 4 2 4 2 2 3 3 8 11 6 6 7 6 8 5 12 19 11 10 4 2 4 3 0 1 1 5 7 4 11 8 5 10 4 7 6 12 12 11 8 9 13 14 15
Wind_Direction
342 339 338 335 334 331 327 324 323 321 317 314 310 308 305 304 304 290 272 266 275 268 340 305 274 273 250 246 229 241 217 234 224 227 224 186 206 207 215 211 193 202 176 197 188
340 339 336 334 333 330 327 324 323 320 318 315 314 313 309 310 306 283 287 307 328 280 301 36 356 330 273 232 234 222 231 222 229 234 227 226 204 181 175 198 205 191 251 184 174
340 338 336 333 331 329 326 323 321 321 319 320 321 318 313 310 335 250 324 344 214 334 275 321 20 335 274 266 227 232 229 238 236 245 221 238 218 182 197 214 209 205 195 185 179
340 338 336 333 331 329 326 322 321 323 323 321 316 318 348 338 300 256 323 334 305 233 218 272 310 281 304 277 296 259 240 245 239 239 241 224 225 215 199 208 185 208 200 176 182
342 338 336 335 331 327 326 323 323 323 322 321 314 295 325 77 250 321 323 315 312 237 224 223 243 255 243 272 300 283 280 269 249 241 252 259 246 229 224 210 195 199 187 187 190
341 339 338 335 332 329 326 323 320 319 314 311 325 217 134 265 229 284 303 301 295 261 217 192 213 216 252 262 255 287 290 287 297 264 252 236 236 246 219 186 187 178 187 192 193
341 339 338 336 334 333 328 323 321 319 310 296 260 203 173 247 245 281 297 293 298 278 228 243 234 205 235 278 261 257 273 275 258 266 237 216 243 236 263 192 181 184 192 198 201
341 339 338 336 335 335 329 324 322 319 312 277 275 201 243 285 296 293 316 311 299 279 251 256 228 221 237 254 278 264 262 261 255 235 251 233 235 223 224 236 198 188 195 194 212
340 339 337 336 336 333 330 327 327 344 344 233 151 136 268 338 347 319 315 277 284 289 260 252 185 234 245 237 256 227 254 251 263 230 230 206 275 216 207 230 197 194 193 195 203
341 339 337 336 337 333 335 324 336 337 18 88 75 34 314 315 317 307 309 314 257 274 303 209 239 233 227 220 231 237 232 248 256 230 228 224 235 235 190 234 223 195 187 195 198
343 340 338 337 339 337 352 348 14 352 25 259 292 240 285 310 316 295 321 291 261 190 234 259 232 231 234 225 237 258 264 245 275 253 214 234 235 221 216 213 231 205 195 190 197
344 344 342 342 341 352 3 59 283 277 320 279 245 251 268 324 316 319 341 322 313 282 275 347 245 250 249 260 248 262 252 251 258 256 229 222 236 223 209 211 221 230 208 190 185
345 349 349 349 347 352 359 21 318 244 259 299 256 271 307 340 307 304 341 295 272 288 284 226 258 294 238 261 250 261 233 226 229 305 204 208 242 222 214 204 186 237 257 211 185
349 353 356 356 8 339 335 337 305 188 48 351 343 315 348 328 298 316 328 301 309 295 305 274 266 236 241 255 262 241 206 209 212 252 202 186 245 211 209 212 207 208 270 252 217
353 359 7 6 324 328 328 325 172 94 33 317 314 312 327 320 293 291 338 312 295 297 273 251 287 279 272 262 261 231 186 200 195 230 311 194 250 116 192 206 201 198 206 245 255
353 357 5 3 347 337 333 145 133 39 308 328 320 333 331 303 321 298 315 338 282 288 268 269 266 258 244 278 241 220 139 158 153 226 244 236 193 163 163 234 204 191 195 214 279
349 20 14 6 331 342 147 67 35 75 355 328 324 328 322 330 326 329 325 344 2 333 342 332 342 284 303 308 183 181 148 158 183 202 224 183 193 47 357 5 244 185 131 40 32
349 13 11 3 355 347 148 53 60 319 289 300 313 313 314 6 324 327 321 339 327 338 320 346 321 357 342 278 321 269 155 156 146 186 209 187 179 86 33 30 52 70 84 61 41
353 50 10 2 0 1 66 49 182 293 299 311 320 333 314 330 322 347 324 278 358 350 351 319 284 306 317 281 224 132 224 248 68 53 200 151 102 60 19 35 35 41 48 53 43
348 345 3 358 1 33 63 99 271 263 309 314 327 14 310 330 339 358 315 246 344 338 347 316 292 305 335 8 46 302 104 183 191 205 186 143 129 63 6 19 31 23 30 33 40
8 42 0 3 14 40 79 272 298 287 353 332 290 299 276 322 321 297 288 293 2 321 331 305 285 308 335 27 356 360 26 330 291 232 328 131 102 49 32 17 31 17 25 23 35
8 38 358 8 45 29 10 302 309 285 342 306 284 251 283 325 297 294 294 274 336 333 337 342 290 301 360 112 102 74 352 322 321 358 79 61 94 28 39 25 24 13 19 24 32
21 290 358 24 53 8 310 307 289 306 323 316 287 269 337 302 320 255 303 282 323 331 351 336 344 313 343 29 38 26 3 337 229 269 35 74 136 24 23 16 27 10 17 16 17
43 1 330 29 96 103 330 277 326 302 286 295 260 302 322 295 230 288 301 305 322 311 351 6 12 46 104 179 296 3 2 7 341 46 70 50 84 8 10 4 1 12 8 13 8
26 286 132 308 333 347 229 278 331 344 296 313 315 297 329 296 305 266 297 322 310 320 357 66 132 96 140 156 74 48 22 17 37 7 55 82 74 6 356 347 354 4 4 14 7
9 17 332 279 294 324 305 281 316 293 239 290 247 317 302 216 215 303 309 298 262 323 5 353 302 165 207 219 86 59 35 31 36 13 36 54 72 8 340 340 38 11 12 8 3
222 247 240 283 291 328 264 273 311 316 267 232 283 302 306 275 300 288 279 244 227 25 303 50 25 42 197 258 283 4 5 44 73 34 353 30 318 335 339 343 346 9 9 358 351